This is the latest recevied weather packets stored in our database for station/object N9OJR. If no packets are shown the sender has not sent any weather packets the latest 1 day(s).
| Time | Temp. | Humidity | Pressure | Rain* | Wind** | Luminosity | Snow |
|---|---|---|---|---|---|---|---|
| 1778036557 | 10° C | 99% | 1005 hPa | 1.27 mm | - | 0 W/m² | - |
| 1778036253 | 10° C | 99% | 1005 hPa | 1.27 mm | - | 0 W/m² | - |
| 1778035949 | 10° C | 99% | 1004.9 hPa | 1.78 mm | - | 0 W/m² | - |
| 1778035641 | 10° C | 99% | 1004.9 hPa | 1.78 mm | - | 0 W/m² | - |
| 1778035338 | 10° C | 99% | 1005 hPa | 1.78 mm | - | 0 W/m² | - |
| 1778035034 | 10° C | 99% | 1005 hPa | 1.78 mm | - | 0 W/m² | - |
| 1778034428 | 10° C | 99% | 1005.2 hPa | 1.27 mm | - | 0 W/m² | - |
| 1778034126 | 10° C | 99% | 1005.2 hPa | 0 mm | - | 0 W/m² | - |
| 1778033824 | 10° C | 99% | 1005.5 hPa | 3.05 mm | - | 0 W/m² | - |
| 1778032310 | 11.11° C | 99% | 1004.6 hPa | 13.72 mm | - | 0 W/m² | - |
| 1778032006 | 11.11° C | 99% | 1004.3 hPa | 7.87 mm | - | 0 W/m² | - |
| 1778031702 | 11.67° C | 99% | 1004.2 hPa | 8.89 mm | - | 0 W/m² | - |
| 1778031400 | 12.22° C | 99% | 1004.3 hPa | 9.65 mm | - | 0 W/m² | - |
| 1778031097 | 12.78° C | 99% | 1003.9 hPa | 4.32 mm | - | 0 W/m² | - |
| 1778030793 | 12.78° C | 99% | 1003.9 hPa | 3.05 mm | - | 0 W/m² | - |
| 1778030490 | 13.33° C | 99% | 1004 hPa | 3.05 mm | - | 0 W/m² | - |
| 1778029883 | 13.33° C | 99% | 1003.9 hPa | 1.78 mm | - | 0 W/m² | - |
| 1778029279 | 13.89° C | 99% | 1003.7 hPa | 3.05 mm | - | 0 W/m² | - |
| 1778028976 | 13.89° C | 99% | 1003.9 hPa | 3.05 mm | - | 0 W/m² | - |
| 1778028369 | 13.89° C | 99% | 1004 hPa | 1.78 mm | - | 0 W/m² | - |
| 1778028066 | 13.89° C | 99% | 1003.9 hPa | 3.05 mm | - | 0 W/m² | - |
| 1778026547 | 13.89° C | 99% | 1004 hPa | 1.78 mm | - | 0 W/m² | - |
| 1778025942 | 13.89° C | 99% | 1003.8 hPa | 0 mm | - | 3 W/m² | - |
| 1778025337 | 13.89° C | 99% | 1004.1 hPa | 0 mm | - | 3 W/m² | - |
| 1778024125 | 13.89° C | 99% | 1004.1 hPa | 3.05 mm | - | 8 W/m² | - |
* Rain latest hour (hover to see other rain measurements)
** Current wind speed in m/s (hover to see current wind gust speed)